utcTime,localTime,pm25,nowcast
2022-09-09 15:00:00 +0000,2022-09-09 08:00:00 -0700,15.2,NA
2022-09-09 16:00:00 +0000,2022-09-09 09:00:00 -0700,16.9,16
2022-09-09 17:00:00 +0000,2022-09-09 10:00:00 -0700,15.2,15.7
2022-09-09 18:00:00 +0000,2022-09-09 11:00:00 -0700,18.1,16.5
2022-09-09 19:00:00 +0000,2022-09-09 12:00:00 -0700,17.7,16.8
2022-09-09 20:00:00 +0000,2022-09-09 13:00:00 -0700,17.5,16.9
2022-09-09 21:00:00 +0000,2022-09-09 14:00:00 -0700,18.4,17.3
2022-09-09 22:00:00 +0000,2022-09-09 15:00:00 -0700,14.9,16.7
2022-09-09 23:00:00 +0000,2022-09-09 16:00:00 -0700,17,16.8
2022-09-10 00:00:00 +0000,2022-09-09 17:00:00 -0700,28.6,22.4
2022-09-10 01:00:00 +0000,2022-09-09 18:00:00 -0700,29.9,26.2
2022-09-10 02:00:00 +0000,2022-09-09 19:00:00 -0700,22.5,24.3
2022-09-10 03:00:00 +0000,2022-09-09 20:00:00 -0700,23.6,23.9
2022-09-10 04:00:00 +0000,2022-09-09 21:00:00 -0700,34.3,29.1
2022-09-10 05:00:00 +0000,2022-09-09 22:00:00 -0700,33.8,31.4
2022-09-10 06:00:00 +0000,2022-09-09 23:00:00 -0700,25.9,28.6
2022-09-10 07:00:00 +0000,2022-09-10 00:00:00 -0700,22.5,25.5
2022-09-10 08:00:00 +0000,2022-09-10 01:00:00 -0700,22.4,23.9
2022-09-10 09:00:00 +0000,2022-09-10 02:00:00 -0700,13.7,18.8
2022-09-10 10:00:00 +0000,2022-09-10 03:00:00 -0700,13.1,15.9
2022-09-10 11:00:00 +0000,2022-09-10 04:00:00 -0700,11.9,13.9
2022-09-10 12:00:00 +0000,2022-09-10 05:00:00 -0700,10.6,12.2
2022-09-10 13:00:00 +0000,2022-09-10 06:00:00 -0700,11.6,11.9
2022-09-10 14:00:00 +0000,2022-09-10 07:00:00 -0700,12.9,12.4
2022-09-10 15:00:00 +0000,2022-09-10 08:00:00 -0700,18.3,15.3
2022-09-10 16:00:00 +0000,2022-09-10 09:00:00 -0700,16.3,15.8
2022-09-10 17:00:00 +0000,2022-09-10 10:00:00 -0700,14,14.9
2022-09-10 18:00:00 +0000,2022-09-10 11:00:00 -0700,12.6,13.7
2022-09-10 19:00:00 +0000,2022-09-10 12:00:00 -0700,12.2,12.9
2022-09-10 20:00:00 +0000,2022-09-10 13:00:00 -0700,12.6,12.9
2022-09-10 21:00:00 +0000,2022-09-10 14:00:00 -0700,11.1,12.1
2022-09-10 22:00:00 +0000,2022-09-10 15:00:00 -0700,20.1,15.8
2022-09-10 23:00:00 +0000,2022-09-10 16:00:00 -0700,23.6,19.8
2022-09-11 00:00:00 +0000,2022-09-10 17:00:00 -0700,21.5,20.6
2022-09-11 01:00:00 +0000,2022-09-10 18:00:00 -0700,20.6,20.6
2022-09-11 02:00:00 +0000,2022-09-10 19:00:00 -0700,16,18.3
2022-09-11 03:00:00 +0000,2022-09-10 20:00:00 -0700,21,19.6
2022-09-11 04:00:00 +0000,2022-09-10 21:00:00 -0700,22.1,20.8
2022-09-11 05:00:00 +0000,2022-09-10 22:00:00 -0700,20.4,20.6
2022-09-11 06:00:00 +0000,2022-09-10 23:00:00 -0700,22.1,21.3
2022-09-11 07:00:00 +0000,2022-09-11 00:00:00 -0700,29.7,25.5
2022-09-11 08:00:00 +0000,2022-09-11 01:00:00 -0700,37.6,31.5
2022-09-11 09:00:00 +0000,2022-09-11 02:00:00 -0700,37,34.2
2022-09-11 10:00:00 +0000,2022-09-11 03:00:00 -0700,38.3,36.2
2022-09-11 11:00:00 +0000,2022-09-11 04:00:00 -0700,34.6,35.4
2022-09-11 12:00:00 +0000,2022-09-11 05:00:00 -0700,33.7,34.5
2022-09-11 13:00:00 +0000,2022-09-11 06:00:00 -0700,28,31.2
2022-09-11 14:00:00 +0000,2022-09-11 07:00:00 -0700,34.6,32.9
2022-09-11 15:00:00 +0000,2022-09-11 08:00:00 -0700,30.2,31.6
2022-09-11 16:00:00 +0000,2022-09-11 09:00:00 -0700,25.4,28.7
2022-09-11 17:00:00 +0000,2022-09-11 10:00:00 -0700,25.7,27.6
2022-09-11 18:00:00 +0000,2022-09-11 11:00:00 -0700,26.8,27.8
2022-09-11 19:00:00 +0000,2022-09-11 12:00:00 -0700,32.9,29.5
2022-09-11 20:00:00 +0000,2022-09-11 13:00:00 -0700,43.7,35.5
2022-09-11 21:00:00 +0000,2022-09-11 14:00:00 -0700,48.2,41.9
2022-09-11 22:00:00 +0000,2022-09-11 15:00:00 -0700,42.1,42
2022-09-11 23:00:00 +0000,2022-09-11 16:00:00 -0700,39.3,40.7
2022-09-12 00:00:00 +0000,2022-09-11 17:00:00 -0700,37.9,39.3
2022-09-12 01:00:00 +0000,2022-09-11 18:00:00 -0700,40.2,39.7
2022-09-12 02:00:00 +0000,2022-09-11 19:00:00 -0700,41.5,40.5
2022-09-12 03:00:00 +0000,2022-09-11 20:00:00 -0700,45,42.6
2022-09-12 04:00:00 +0000,2022-09-11 21:00:00 -0700,41.5,42.1
2022-09-12 05:00:00 +0000,2022-09-11 22:00:00 -0700,39.8,41
2022-09-12 06:00:00 +0000,2022-09-11 23:00:00 -0700,43.9,42
2022-09-12 07:00:00 +0000,2022-09-12 00:00:00 -0700,40.7,41.7
2022-09-12 08:00:00 +0000,2022-09-12 01:00:00 -0700,34.6,39.6
2022-09-12 09:00:00 +0000,2022-09-12 02:00:00 -0700,16.6,27.3
2022-09-12 10:00:00 +0000,2022-09-12 03:00:00 -0700,19.9,23.6
2022-09-12 11:00:00 +0000,2022-09-12 04:00:00 -0700,14.8,19.2
2022-09-12 12:00:00 +0000,2022-09-12 05:00:00 -0700,12,15.5
2022-09-12 13:00:00 +0000,2022-09-12 06:00:00 -0700,22.1,18.8
2022-09-12 14:00:00 +0000,2022-09-12 07:00:00 -0700,19.8,19.3
2022-09-12 15:00:00 +0000,2022-09-12 08:00:00 -0700,14.6,16.9
2022-09-12 16:00:00 +0000,2022-09-12 09:00:00 -0700,17.8,17.3
2022-09-12 17:00:00 +0000,2022-09-12 10:00:00 -0700,19.3,18.3
2022-09-12 18:00:00 +0000,2022-09-12 11:00:00 -0700,15.7,17
2022-09-12 19:00:00 +0000,2022-09-12 12:00:00 -0700,30.6,23.8
2022-09-12 20:00:00 +0000,2022-09-12 13:00:00 -0700,34,28.9
2022-09-12 21:00:00 +0000,2022-09-12 14:00:00 -0700,24.7,26.8
2022-09-12 22:00:00 +0000,2022-09-12 15:00:00 -0700,29.1,27.9
2022-09-12 23:00:00 +0000,2022-09-12 16:00:00 -0700,22.2,25
2022-09-13 00:00:00 +0000,2022-09-12 17:00:00 -0700,20.7,22.8
2022-09-13 01:00:00 +0000,2022-09-12 18:00:00 -0700,21.6,22.2
2022-09-13 02:00:00 +0000,2022-09-12 19:00:00 -0700,23.8,23
2022-09-13 03:00:00 +0000,2022-09-12 20:00:00 -0700,28.9,25.9
2022-09-13 04:00:00 +0000,2022-09-12 21:00:00 -0700,22.8,24.3
2022-09-13 05:00:00 +0000,2022-09-12 22:00:00 -0700,21.5,22.9
2022-09-13 06:00:00 +0000,2022-09-12 23:00:00 -0700,11.4,17.1
2022-09-13 07:00:00 +0000,2022-09-13 00:00:00 -0700,14.6,15.8
2022-09-13 08:00:00 +0000,2022-09-13 01:00:00 -0700,10.6,13.2
2022-09-13 09:00:00 +0000,2022-09-13 02:00:00 -0700,10.9,12
2022-09-13 10:00:00 +0000,2022-09-13 03:00:00 -0700,11.1,11.5
2022-09-13 11:00:00 +0000,2022-09-13 04:00:00 -0700,10.3,10.9
2022-09-13 12:00:00 +0000,2022-09-13 05:00:00 -0700,8,9.4
2022-09-13 13:00:00 +0000,2022-09-13 06:00:00 -0700,11.1,10.2
2022-09-13 14:00:00 +0000,2022-09-13 07:00:00 -0700,14.3,12.2
2022-09-13 15:00:00 +0000,2022-09-13 08:00:00 -0700,11.2,11.7
2022-09-13 16:00:00 +0000,2022-09-13 09:00:00 -0700,9,10.3
2022-09-13 17:00:00 +0000,2022-09-13 10:00:00 -0700,7,8.6
2022-09-13 18:00:00 +0000,2022-09-13 11:00:00 -0700,7.3,7.9
2022-09-13 19:00:00 +0000,2022-09-13 12:00:00 -0700,9,8.4
2022-09-13 20:00:00 +0000,2022-09-13 13:00:00 -0700,12,10.2
2022-09-13 21:00:00 +0000,2022-09-13 14:00:00 -0700,12.6,11.4
2022-09-13 22:00:00 +0000,2022-09-13 15:00:00 -0700,11.1,11.2
2022-09-13 23:00:00 +0000,2022-09-13 16:00:00 -0700,10.2,10.7
2022-09-14 00:00:00 +0000,2022-09-13 17:00:00 -0700,7,8.8
2022-09-14 01:00:00 +0000,2022-09-13 18:00:00 -0700,8,8.4
2022-09-14 02:00:00 +0000,2022-09-13 19:00:00 -0700,6.5,7.5
2022-09-14 03:00:00 +0000,2022-09-13 20:00:00 -0700,5.4,6.4
2022-09-14 04:00:00 +0000,2022-09-13 21:00:00 -0700,5.8,6.1
2022-09-14 05:00:00 +0000,2022-09-13 22:00:00 -0700,4.7,5.4
2022-09-14 06:00:00 +0000,2022-09-13 23:00:00 -0700,3.5,4.4
2022-09-14 07:00:00 +0000,2022-09-14 00:00:00 -0700,3.8,4.1
2022-09-14 08:00:00 +0000,2022-09-14 01:00:00 -0700,7,5.5
2022-09-14 09:00:00 +0000,2022-09-14 02:00:00 -0700,5.3,5.4
2022-09-14 10:00:00 +0000,2022-09-14 03:00:00 -0700,4.7,5
2022-09-14 11:00:00 +0000,2022-09-14 04:00:00 -0700,6.2,5.6
2022-09-14 12:00:00 +0000,2022-09-14 05:00:00 -0700,7.6,6.6
2022-09-14 13:00:00 +0000,2022-09-14 06:00:00 -0700,7.3,6.9
2022-09-14 14:00:00 +0000,2022-09-14 07:00:00 -0700,8,7.4
2022-09-14 15:00:00 +0000,2022-09-14 08:00:00 -0700,4.4,5.9
2022-09-14 16:00:00 +0000,2022-09-14 09:00:00 -0700,7.6,6.7
2022-09-14 17:00:00 +0000,2022-09-14 10:00:00 -0700,21.5,14.1
2022-09-14 18:00:00 +0000,2022-09-14 11:00:00 -0700,15.2,14.6
2022-09-14 19:00:00 +0000,2022-09-14 12:00:00 -0700,8.3,11.4
2022-09-14 20:00:00 +0000,2022-09-14 13:00:00 -0700,7.1,9.2
2022-09-14 21:00:00 +0000,2022-09-14 14:00:00 -0700,5.6,7.4
2022-09-14 22:00:00 +0000,2022-09-14 15:00:00 -0700,7.3,7.3
2022-09-14 23:00:00 +0000,2022-09-14 16:00:00 -0700,5.9,6.6
2022-09-15 00:00:00 +0000,2022-09-14 17:00:00 -0700,10.5,8.5
2022-09-15 01:00:00 +0000,2022-09-14 18:00:00 -0700,8.3,8.4
2022-09-15 02:00:00 +0000,2022-09-14 19:00:00 -0700,9.3,8.8
2022-09-15 03:00:00 +0000,2022-09-14 20:00:00 -0700,10.9,9.8
2022-09-15 04:00:00 +0000,2022-09-14 21:00:00 -0700,11.2,10.5
2022-09-15 05:00:00 +0000,2022-09-14 22:00:00 -0700,12.5,11.5
2022-09-15 06:00:00 +0000,2022-09-14 23:00:00 -0700,12.6,12
2022-09-15 07:00:00 +0000,2022-09-15 00:00:00 -0700,11.2,11.6
2022-09-15 08:00:00 +0000,2022-09-15 01:00:00 -0700,13.7,12.6
2022-09-15 09:00:00 +0000,2022-09-15 02:00:00 -0700,10.2,11.4
2022-09-15 10:00:00 +0000,2022-09-15 03:00:00 -0700,9.6,10.5
2022-09-15 11:00:00 +0000,2022-09-15 04:00:00 -0700,7,8.8
2022-09-15 12:00:00 +0000,2022-09-15 05:00:00 -0700,8.5,8.6
2022-09-15 13:00:00 +0000,2022-09-15 06:00:00 -0700,12.3,10.4
2022-09-15 14:00:00 +0000,2022-09-15 07:00:00 -0700,8.5,9.4
2022-09-15 15:00:00 +0000,2022-09-15 08:00:00 -0700,12.9,11.1
2022-09-15 16:00:00 +0000,2022-09-15 09:00:00 -0700,10.3,10.7
2022-09-15 17:00:00 +0000,2022-09-15 10:00:00 -0700,9.1,9.9
2022-09-15 18:00:00 +0000,2022-09-15 11:00:00 -0700,11.4,10.6
2022-09-15 19:00:00 +0000,2022-09-15 12:00:00 -0700,13.4,11.9
2022-09-15 20:00:00 +0000,2022-09-15 13:00:00 -0700,9.6,10.8
2022-09-15 21:00:00 +0000,2022-09-15 14:00:00 -0700,9,9.9
2022-09-15 22:00:00 +0000,2022-09-15 15:00:00 -0700,13.4,11.6
2022-09-15 23:00:00 +0000,2022-09-15 16:00:00 -0700,10.6,11
2022-09-16 00:00:00 +0000,2022-09-15 17:00:00 -0700,14.9,12.7
2022-09-16 01:00:00 +0000,2022-09-15 18:00:00 -0700,14.8,13.6
2022-09-16 02:00:00 +0000,2022-09-15 19:00:00 -0700,12.5,13
2022-09-16 03:00:00 +0000,2022-09-15 20:00:00 -0700,13.4,13.2
2022-09-16 04:00:00 +0000,2022-09-15 21:00:00 -0700,13.5,13.3
2022-09-16 05:00:00 +0000,2022-09-15 22:00:00 -0700,10.9,12.3
2022-09-16 06:00:00 +0000,2022-09-15 23:00:00 -0700,13.5,12.8
2022-09-16 07:00:00 +0000,2022-09-16 00:00:00 -0700,10.9,12
2022-09-16 08:00:00 +0000,2022-09-16 01:00:00 -0700,10.2,11.3
2022-09-16 09:00:00 +0000,2022-09-16 02:00:00 -0700,9.6,10.7
2022-09-16 10:00:00 +0000,2022-09-16 03:00:00 -0700,9.1,10
2022-09-16 11:00:00 +0000,2022-09-16 04:00:00 -0700,7.1,8.4
2022-09-16 12:00:00 +0000,2022-09-16 05:00:00 -0700,7.7,8
2022-09-16 13:00:00 +0000,2022-09-16 06:00:00 -0700,9.6,8.8
2022-09-16 14:00:00 +0000,2022-09-16 07:00:00 -0700,8.8,8.8
2022-09-16 15:00:00 +0000,2022-09-16 08:00:00 -0700,9.3,9
2022-09-16 16:00:00 +0000,2022-09-16 09:00:00 -0700,9.6,9.3
2022-09-16 17:00:00 +0000,2022-09-16 10:00:00 -0700,10.6,9.9
2022-09-16 18:00:00 +0000,2022-09-16 11:00:00 -0700,8.7,9.3
2022-09-16 19:00:00 +0000,2022-09-16 12:00:00 -0700,10.9,9.8
2022-09-16 20:00:00 +0000,2022-09-16 13:00:00 -0700,11.6,10.5
2022-09-16 21:00:00 +0000,2022-09-16 14:00:00 -0700,11.1,10.7
2022-09-16 22:00:00 +0000,2022-09-16 15:00:00 -0700,13.4,12
2022-09-16 23:00:00 +0000,2022-09-16 16:00:00 -0700,9.9,11
2022-09-17 00:00:00 +0000,2022-09-16 17:00:00 -0700,14.9,12.6
2022-09-17 01:00:00 +0000,2022-09-16 18:00:00 -0700,11.7,12.2
2022-09-17 02:00:00 +0000,2022-09-16 19:00:00 -0700,12.3,12.2
2022-09-17 03:00:00 +0000,2022-09-16 20:00:00 -0700,13.1,12.6
2022-09-17 04:00:00 +0000,2022-09-16 21:00:00 -0700,10.8,11.8
2022-09-17 05:00:00 +0000,2022-09-16 22:00:00 -0700,10.6,11.3
2022-09-17 06:00:00 +0000,2022-09-16 23:00:00 -0700,9.7,10.8
2022-09-17 07:00:00 +0000,2022-09-17 00:00:00 -0700,14.9,12.2
2022-09-17 08:00:00 +0000,2022-09-17 01:00:00 -0700,7.9,10.3
2022-09-17 09:00:00 +0000,2022-09-17 02:00:00 -0700,10.2,10.2
2022-09-17 10:00:00 +0000,2022-09-17 03:00:00 -0700,10.2,10.2
2022-09-17 11:00:00 +0000,2022-09-17 04:00:00 -0700,7.6,8.9
2022-09-17 12:00:00 +0000,2022-09-17 05:00:00 -0700,8.5,8.7
2022-09-17 13:00:00 +0000,2022-09-17 06:00:00 -0700,8,8.3
2022-09-17 14:00:00 +0000,2022-09-17 07:00:00 -0700,6.8,7.5
2022-09-17 15:00:00 +0000,2022-09-17 08:00:00 -0700,14.6,11
2022-09-17 16:00:00 +0000,2022-09-17 09:00:00 -0700,10.5,10.7
2022-09-17 17:00:00 +0000,2022-09-17 10:00:00 -0700,9,9.8
2022-09-17 18:00:00 +0000,2022-09-17 11:00:00 -0700,10.6,10.2
2022-09-17 19:00:00 +0000,2022-09-17 12:00:00 -0700,12.6,11.4
2022-09-17 20:00:00 +0000,2022-09-17 13:00:00 -0700,12.3,11.8
2022-09-17 21:00:00 +0000,2022-09-17 14:00:00 -0700,8.8,10.3
2022-09-17 22:00:00 +0000,2022-09-17 15:00:00 -0700,11.6,10.9
2022-09-17 23:00:00 +0000,2022-09-17 16:00:00 -0700,7.3,9.1
2022-09-18 00:00:00 +0000,2022-09-17 17:00:00 -0700,5.8,7.4
2022-09-18 01:00:00 +0000,2022-09-17 18:00:00 -0700,4.1,5.7
2022-09-18 02:00:00 +0000,2022-09-17 19:00:00 -0700,2.2,3.9
2022-09-18 03:00:00 +0000,2022-09-17 20:00:00 -0700,3.2,3.5
2022-09-18 04:00:00 +0000,2022-09-17 21:00:00 -0700,3.9,3.7
2022-09-18 05:00:00 +0000,2022-09-17 22:00:00 -0700,3.9,3.8
2022-09-18 06:00:00 +0000,2022-09-17 23:00:00 -0700,3.3,3.5
2022-09-18 07:00:00 +0000,2022-09-18 00:00:00 -0700,3.5,3.5
2022-09-18 08:00:00 +0000,2022-09-18 01:00:00 -0700,2.2,2.8
2022-09-18 09:00:00 +0000,2022-09-18 02:00:00 -0700,3.8,3.3
2022-09-18 10:00:00 +0000,2022-09-18 03:00:00 -0700,4.2,3.7
2022-09-18 11:00:00 +0000,2022-09-18 04:00:00 -0700,3,3.3
2022-09-18 12:00:00 +0000,2022-09-18 05:00:00 -0700,4.5,3.9
2022-09-18 13:00:00 +0000,2022-09-18 06:00:00 -0700,4.1,4
2022-09-18 14:00:00 +0000,2022-09-18 07:00:00 -0700,3.8,3.9
2022-09-18 15:00:00 +0000,2022-09-18 08:00:00 -0700,5.3,4.6
2022-09-18 16:00:00 +0000,2022-09-18 09:00:00 -0700,4.7,4.6
2022-09-18 17:00:00 +0000,2022-09-18 10:00:00 -0700,6.4,5.5
2022-09-18 18:00:00 +0000,2022-09-18 11:00:00 -0700,5,5.2
2022-09-18 19:00:00 +0000,2022-09-18 12:00:00 -0700,3.6,4.4
2022-09-18 20:00:00 +0000,2022-09-18 13:00:00 -0700,3.8,4.1
2022-09-18 21:00:00 +0000,2022-09-18 14:00:00 -0700,2.2,3.1
2022-09-18 22:00:00 +0000,2022-09-18 15:00:00 -0700,3.5,3.3
2022-09-18 23:00:00 +0000,2022-09-18 16:00:00 -0700,3.2,3.2
2022-09-19 00:00:00 +0000,2022-09-18 17:00:00 -0700,3.8,3.5
2022-09-19 01:00:00 +0000,2022-09-18 18:00:00 -0700,4.4,3.9
2022-09-19 02:00:00 +0000,2022-09-18 19:00:00 -0700,3,3.4
2022-09-19 03:00:00 +0000,2022-09-18 20:00:00 -0700,2.1,2.7
2022-09-19 04:00:00 +0000,2022-09-18 21:00:00 -0700,3.9,3.3
2022-09-19 05:00:00 +0000,2022-09-18 22:00:00 -0700,3.9,3.6
2022-09-19 06:00:00 +0000,2022-09-18 23:00:00 -0700,5.8,4.7
2022-09-19 07:00:00 +0000,2022-09-19 00:00:00 -0700,5.1,4.9
2022-09-19 08:00:00 +0000,2022-09-19 01:00:00 -0700,3.5,4.2
2022-09-19 09:00:00 +0000,2022-09-19 02:00:00 -0700,6.7,5.4
2022-09-19 10:00:00 +0000,2022-09-19 03:00:00 -0700,5.8,5.6
2022-09-19 11:00:00 +0000,2022-09-19 04:00:00 -0700,2.7,4.1
2022-09-19 12:00:00 +0000,2022-09-19 05:00:00 -0700,2.7,3.4
2022-09-19 13:00:00 +0000,2022-09-19 06:00:00 -0700,3.6,3.5
2022-09-19 14:00:00 +0000,2022-09-19 07:00:00 -0700,3,3.2
2022-09-19 15:00:00 +0000,2022-09-19 08:00:00 -0700,NA,NA
